Terminal Aerodrome Forecast
Issued by NWS

Home | Current Version | Previous Version | Text Only | Print | Product List | Glossary On
Versions: 1 2 3 4 5 6 7 8 9 10 11 12 13 14 15 16 17 18 19 20 21 22 23 24 25 26 27 28 29 30 31 32 33 34 35 36 37 38 39 40 41 42 43 44 45 46 47 48 49 50
000
FTUS46 KEKA 030200 AAA
TAFACV
TAF AMD
KACV 030200Z 0302/0324 31007KT P6SM SCT007 SCT015 BKN100
      TEMPO 0302/0304 SCT007 BKN015
     FM030400 33004KT 6SM BR SCT004 BKN008 OVC012
     FM030900 00000KT 2SM BR OVC004
     FM031600 32005KT 6SM BR SCT004 OVC007
     FM032000 30008KT P6SM BKN009 BKN100=

USA.gov is the U.S. government's official web portal to all federal, state and local government web resources and services.